Location: L�gaud
(45.7115°N, 1.7775°E)
Time: 15:15:30
(UTC+00:00)

Cosmos 1503 Rocket - Pass Details

Date: 03 March 2021
Orbit: 753 x 790 km, 74.0° (Epoch: 11 April)

Event Time Altitude Azimuth Distance (km) Brightness Sun altitude
Rises 18:28:55 0° 341° (NNW) 3,231 7.5 -8.9°
Reaches altitude 10° 18:31:22 10° 347° (NNW) 2,297 6.7 -9.3°
Maximum altitude 18:36:27 54° 64° (ENE) 920 4.1 -10.2°
Drops below altitude 10° 18:41:29 10° 142° (SE) 2,272 6.1 -11.1°
Sets 18:43:54 0° 147° (SSE) 3,192 6.9 -11.5°
